sat.trackr.live / text

‹ back to catalog

ONEWEB-0698

NORAD 61604 · 2024-188L

PAYLOAD ACTIVE UNKNOWN

§ Identity

Operator
Country
UK
Launch date
2024-10-20
Launch site
AFWTR
Launch vehicle
Mass (kg)
RCS (m²)

Purposes: comms

External: N2YO · Heavens-Above · Gunter

§ Orbital elements

Epoch: 2026-05-25T02:01:59.611872Z

Period
109.80 min
Inclination
87.8908°
Eccentricity
0.0001135
Mean motion
13.11417442 rev/d
Perigee alt
1,216.8 km
Apogee alt
1,218.5 km
Semi-major
7,595.8 km
B*
-1.2997e-3
RAAN
25.6782°
Arg perigee
41.1992°
Mean anomaly
318.9221°
Rev number
8,144

§ Raw data

ONEWEB-06981 61604U 24188L   26145.08471773 -.00000448  00000+0 -12997-2 0  99922 61604  87.8908  25.6782 0001135  41.1992 318.9221 13.11417442 81446

JSON: /api/v1/satellites/61604 · /tle

For live sub-satellite position, see the globe view (requires WebGL).

§ Visibility from observer

Set your observer location to see the next 7 days of passes ≥ 10°. The values pass through the URL so the page stays shareable.

No JS? Fill the form by hand. The geolocation button needs JavaScript.